GW4658 Weather Reports


time (UTC)temp
F
wind
direction
speed
knots
gust
knots
rain 1hr
in
rain 24hr
in
rain mn
in
humidity
%
barometer
mb
20260906104553 67 359 1.7 4.3 0.00 0.00 0.00 93 1021.4
20260906103052 67 359 1.7 4.3 0.00 0.00 0.00 93 1021.6
20260906101545 67 359 0.9 3.5 0.00 0.00 0.00 93 1021.3
20260906100041 67 359 3.5 7.0 0.00 0.00 0.00 92 1020.8
20260906094538 67 359 2.6 5.2 0.00 0.00 0.00 92 1020.7
20260906093033 68 359 2.6 7.0 0.00 0.00 0.00 92 1020.7
20260906091531 68 359 4.3 7.0 0.00 0.00 0.00 91 1020.6
20260906090025 69 359 3.5 8.7 0.00 0.00 0.00 91 1020.7
20260906084525 69 359 5.2 8.7 0.00 0.00 0.00 91 1020.6
20260906083023 69 359 2.6 7.0 0.00 0.00 0.00 91 1020.6
20260906081529 69 359 2.6 7.8 0.00 0.00 0.00 91 1020.5
20260906080010 69 359 5.2 8.7 0.00 0.00 0.00 91 1020.5
20260906074505 70 72 2.6 7.8 0.00 0.00 0.00 91 1020.7
20260906073110 70 82 4.3 9.6 0.00 0.00 0.00 90 1020.6
20260906071610 70 106 4.3 8.7 0.00 0.00 0.00 90 1020.8
20260906070056 70 64 3.5 8.7 0.00 0.00 0.00 89 1021.0
20260906064552 71 73 3.5 8.7 0.00 0.00 0.00 89 1021.3
20260906063049 71 60 4.3 9.6 0.00 0.00 0.00 89 1021.0
20260906061545 71 50 7.0 10.4 0.00 0.00 0.00 89 1021.1
20260906060041 71 97 4.3 9.6 0.00 0.00 0.00 89 1020.8
20260906054538 71 88 3.5 8.7 0.00 0.00 0.00 89 1020.9
20260906053037 71 35 4.3 7.8 0.00 0.00 0.00 88 1020.9
20260906051533 72 68 4.3 7.0 0.00 0.00 0.00 88 1020.7
20260906050048 72 87 1.7 5.2 0.00 0.00 0.00 88 1020.6
20260906044522 72 50 4.3 7.0 0.00 0.00 0.00 88 1020.8
20260906043018 72 91 2.6 4.3 0.00 0.00 0.00 89 1020.8
20260906041516 72 4 0.9 2.6 0.00 0.00 0.00 88 1020.8
20260906040011 72 251 0.0 2.6 0.00 0.00 0.00 88 1020.6
20260906034506 72 37 4.3 8.7 0.00 0.00 0.00 89 1020.1
20260906033002 72 56 2.6 3.5 0.00 0.00 0.00 88 1020.3
20260906031603 73 10 2.6 3.5 0.00 0.00 0.00 87 1020.5
20260906030133 73 318 0.9 1.7 0.00 0.00 0.00 87 1020.4
20260906024554 73 26 0.9 1.7 0.00 0.00 0.00 88 1020.0
20260906023053 73 42 0.9 2.6 0.00 0.00 0.00 88 1019.7
20260906021606 73 39 1.7 3.5 0.00 0.00 0.00 87 1019.5
20260906020043 74 35 2.6 3.5 0.00 0.00 0.00 86 1019.6
20260906014538 74 39 1.7 5.2 0.00 0.00 0.00 85 1019.2
20260906013035 75 70 2.6 6.1 0.00 0.00 0.00 84 1018.8
20260906011533 75 99 1.7 5.2 0.00 0.00 0.00 84 1018.5
20260906010026 75 89 3.5 8.7 0.00 0.00 0.00 83 1018.5
20260906004524 76 65 5.2 12.2 0.00 0.00 0.00 83 1018.5
20260906003018 77 93 6.1 13.9 0.00 0.02 0.00 82 1018.3
20260906001514 78 88 7.8 12.2 0.00 0.02 0.00 81 1018.3
20260906000010 78 81 6.1 10.4 0.00 0.02 0.00 80 1018.3
20260905234504 79 40 4.3 7.8 0.00 0.02 0.00 79 1018.3
20260905233001 80 62 6.1 13.0 0.00 0.02 0.00 78 1018.1
20260905231602 80 83 7.8 11.3 0.00 0.02 0.00 78 1018.1
20260905230057 80 54 6.1 14.8 0.00 0.02 0.00 78 1018.1
20260905224553 80 53 6.1 13.0 0.00 0.02 0.00 79 1018.0
20260905223050 80 59 7.0 10.4 0.00 0.11 0.00 79 1018.1
20260905221544 79 46 7.0 10.4 0.00 0.11 0.00 81 1018.2
20260905220040 79 67 6.1 12.2 0.00 0.11 0.00 79 1018.2
20260905214533 79 43 7.0 11.3 0.00 0.11 0.00 80 1018.3
20260905213029 79 21 4.3 9.6 0.00 0.11 0.00 79 1018.6
20260905211525 80 85 5.2 11.3 0.00 0.11 0.00 78 1018.6
20260905210023 79 41 3.5 12.2 0.00 0.11 0.00 80 1018.6
20260905204517 79 48 6.1 10.4 0.00 0.11 0.00 81 1018.6
20260905203015 80 49 5.2 8.7 0.00 0.11 0.00 80 1018.7
20260905201508 80 30 4.3 11.3 0.00 0.11 0.00 81 1018.7
20260905200004 80 43 6.1 10.4 0.00 0.11 0.00 82 1018.5
20260905194604 81 42 7.0 10.4 0.00 0.11 0.00 80 1018.9
20260905193059 82 18 3.5 8.7 0.00 0.11 0.00 80 1019.1
20260905191603 82 52 5.2 9.6 0.00 0.11 0.00 79 1018.9
20260905190051 82 50 5.2 10.4 0.00 0.11 0.00 79 1019.1
20260905184602 83 52 4.3 9.6 0.00 0.11 0.00 79 1019.0
20260905183043 82 37 6.1 11.3 0.00 0.11 0.00 79 1018.9
20260905181539 83 43 5.2 10.4 0.00 0.11 0.00 79 1019.0
20260905180035 83 41 4.3 10.4 0.00 0.11 0.00 80 1018.9
20260905174539 83 29 5.2 9.6 0.00 0.11 0.00 80 1018.9
20260905173028 82 37 7.0 10.4 0.00 0.11 0.00 81 1019.0
20260905171523 82 47 5.2 10.4 0.00 0.11 0.00 81 1019.0
20260905170019 82 35 5.2 10.4 0.00 0.11 0.00 80 1019.0
20260905164515 82 34 6.1 12.2 0.00 0.11 0.00 81 1019.3
20260905163011 81 20 5.2 9.6 0.00 0.11 0.00 81 1019.4
20260905161508 81 14 4.3 10.4 0.00 0.11 0.00 81 1019.3
20260905160003 82 354 4.3 8.7 0.00 0.11 0.00 81 1019.2
20260905154605 82 53 2.6 7.8 0.00 0.11 0.00 82 1019.1
20260905153102 81 78 4.3 7.0 0.00 0.11 0.00 82 1019.1
20260905151557 81 29 2.6 7.0 0.00 0.11 0.00 82 1019.0
20260905150052 80 31 6.1 8.7 0.00 0.11 0.00 81 1018.8
20260905144552 81 60 1.7 4.3 0.00 0.11 0.00 80 1018.4
20260905143044 80 30 1.7 5.2 0.00 0.11 0.00 81 1018.3
20260905141602 79 39 2.6 5.2 0.00 0.11 0.00 83 1018.3
20260905140031 77 61 1.7 4.3 0.00 0.11 0.00 85 1018.2
20260905134527 76 354 1.7 4.3 0.00 0.11 0.00 88 1018.2
20260905133027 75 12 2.6 3.5 0.00 0.11 0.00 90 1017.9
20260905131525 73 4 0.9 3.5 0.00 0.11 0.00 92 1017.7
20260905130013 72 339 0.9 2.6 0.00 0.11 0.00 93 1017.5
20260905124508 71 359 0.0 1.7 0.00 0.11 0.00 94 1017.4
20260905123004 70 314 0.0 1.7 0.00 0.11 0.11 94 1017.4
20260905121604 69 314 0.0 2.6 0.00 0.11 0.11 94 1017.4
20260905120100 69 25 0.0 1.7 0.00 0.11 0.11 94 1017.3
20260905114626 68 359 1.7 2.6 0.00 0.11 0.11 94 1017.2
20260905113055 68 359 0.0 1.7 0.00 0.11 0.11 94 1017.1
20260905111552 68 359 0.9 2.6 0.00 0.11 0.11 93 1017.0
20260905110043 68 359 0.9 3.5 0.00 0.11 0.11 93 1017.0